Location: San Vito
(41.8833°N, 12.9833°E)
Time: 08:00:21
(UTC+00:00)

COBE Rocket - Pass Details

Date: 17 November 2019
Orbit: 679 x 783 km, 97.1° (Epoch: 05 December)

Event Time Altitude Azimuth Distance (km) Brightness Sun altitude
Rises 03:50:37 0° 163° (SSE) 3,253 7.5 -23.9°
Reaches altitude 10° 03:52:56 10° 162° (SSE) 2,324 6.7 -23.5°
Maximum altitude 03:58:05 79° 76° (ENE) 790 4.1 -22.5°
Drops below altitude 10° 04:03:10 10° 351° (N) 2,296 6.3 -21.6°
Sets 04:05:27 0° 350° (N) 3,210 7.1 -21.2°
